Aberdeen, SD

2:28 PM CST on February 24, 2018 (GMT -0600)
Aberdeen Regional

Weather History for KABR - May, 2014

Change the Weather History Date:

Sunday, May 25, 2014

  Actual Average Record
Temperature  
Mean Temperature 71 °F 59 °F  
Max Temperature 84 °F 71 °F 93 °F (1941)
Min Temperature 57 °F 47 °F 29 °F (1924)
Degree Days  
Heating Degree Days 0 7  
Month to date heating degree days 338 251  
Since 1 July heating degree days 9441 8422  
Cooling Degree Days 6 1  
Month to date cooling degree days 14 15  
Year to date cooling degree days 14 17  
Growing Degree Days 20 (Base 50)    
Moisture  
Dew Point 57 °F    
Average Humidity 70    
Maximum Humidity 93    
Minimum Humidity 47    
Precipitation  
Precipitation 0.04 in 0.09 in 3.70 in (1906)
Month to date precipitation 1.46 2.53  
Year to date precipitation 4.71 6.56  
Sea Level Pressure  
Sea Level Pressure 29.86 in    
Wind  
Wind Speed 13 mph (SSE)    
Max Wind Speed 24 mph    
Max Gust Speed 32 mph    
Visibility 10 miles    
Events Thunderstorm    
T = Trace of Precipitation, MM = Missing Value Source: NWS Daily Summary

Daily Weather History Graph

Daily Weather History Graph

Search for Another Location

Airport or City:

Trip Planner

Search our weather history database for the weather conditions in past years. The results will help you decide how hot, cold, wet, or windy it might be!

Date:

Astronomy

May. 25, 2014 Rise Set
Actual Time 5:53 AM CDT 9:08 PM CDT
Civil Twilight 5:17 AM CDT 9:44 PM CDT
Nautical Twilight 4:30 AM CDT 10:31 PM CDT
Astronomical Twilight 3:32 AM CDT 11:29 PM CDT
Moon 4:09 AM CDT (5/25) 6:02 PM CDT (5/25)
Length of Visible Light 16h 27m
Length of Day
15h 15m
Waning Crescent, 10% of the Moon is Illuminated
May 25
Waning Crescent
May 28
New
Jun 5
First Quarter
Jun 12
Full
Jun 19
Last Quarter

Hourly Weather History & Observations

Time (CDT) Temp. Heat Index Dew Point Humidity Pressure Visibility Wind Dir Wind Speed Gust Speed Precip Events Conditions
12:53 AM 62.6 °F - 44.6 °F 52% 29.94 in 10.0 mi SSE 13.8 mph - N/A   Clear
1:53 AM 61.0 °F - 44.1 °F 54% 29.92 in 10.0 mi South 13.8 mph - N/A   Clear
2:53 AM 63.0 °F - 44.1 °F 50% 29.91 in 10.0 mi South 13.8 mph - N/A   Overcast
3:53 AM 60.8 °F - 44.6 °F 55% 29.92 in 10.0 mi South 15.0 mph - N/A   Mostly Cloudy
4:53 AM 59.0 °F - 45.0 °F 60% 29.89 in 10.0 mi South 12.7 mph - N/A   Partly Cloudy
5:53 AM 57.9 °F - 46.9 °F 67% 29.90 in 10.0 mi South 11.5 mph - N/A   Clear
6:53 AM 57.9 °F - 50.0 °F 75% 29.90 in 10.0 mi South 10.4 mph - N/A   Clear
7:53 AM 63.0 °F - 53.1 °F 70% 29.90 in 10.0 mi South 13.8 mph - N/A   Clear
8:53 AM 66.9 °F - 55.9 °F 68% 29.90 in 10.0 mi South 15.0 mph - N/A   Clear
9:53 AM 71.6 °F - 59.0 °F 64% 29.91 in 10.0 mi South 17.3 mph - N/A   Clear
10:53 AM 73.9 °F - 60.1 °F 62% 29.89 in 10.0 mi South 15.0 mph 23.0 mph N/A   Clear
11:53 AM 78.1 °F - 60.1 °F 54% 29.87 in 10.0 mi SSE 17.3 mph 25.3 mph N/A   Clear
12:53 PM 79.0 °F - 61.0 °F 54% 29.86 in 10.0 mi South 15.0 mph - N/A   Mostly Cloudy
1:53 PM 80.1 °F 80.9 °F 60.1 °F 50% 29.85 in 10.0 mi SSW 17.3 mph 26.5 mph N/A   Mostly Cloudy
2:53 PM 80.1 °F 81.1 °F 61.0 °F 52% 29.83 in 10.0 mi South 16.1 mph - N/A   Scattered Clouds
3:53 PM 81.0 °F 81.7 °F 61.0 °F 50% 29.80 in 10.0 mi SSW 18.4 mph 28.8 mph N/A   Partly Cloudy
4:53 PM 82.0 °F 82.4 °F 60.1 °F 47% 29.80 in 10.0 mi SW 12.7 mph 25.3 mph N/A   Mostly Cloudy
5:53 PM 82.9 °F 83.2 °F 60.1 °F 46% 29.78 in 10.0 mi SW 15.0 mph 20.7 mph N/A   Clear
6:53 PM 81.0 °F 81.3 °F 59.0 °F 47% 29.79 in 10.0 mi SW 9.2 mph - N/A   Clear
7:15 PM 75.0 °F - 60.1 °F 60% 29.82 in 10.0 mi NNW 17.3 mph 20.7 mph N/A Thunderstorm Thunderstorm
7:40 PM 73.0 °F - 62.1 °F 68% 29.82 in 10.0 mi NW 6.9 mph - N/A Thunderstorm Overcast
7:53 PM 72.0 °F - 63.0 °F 73% 29.81 in 10.0 mi North 9.2 mph - N/A Thunderstorm Overcast
8:53 PM 70.0 °F - 62.1 °F 76% 29.84 in 10.0 mi ENE 10.4 mph - N/A   Mostly Cloudy
9:22 PM 69.1 °F - 62.1 °F 78% 29.85 in 10.0 mi East 11.5 mph - N/A Thunderstorm Scattered Clouds
9:37 PM 69.1 °F - 62.1 °F 78% 29.85 in 10.0 mi East 11.5 mph - N/A Thunderstorm Thunderstorm
9:53 PM 69.1 °F - 62.1 °F 78% 29.85 in 10.0 mi ESE 9.2 mph - N/A Thunderstorm Mostly Cloudy
10:01 PM 68.0 °F - 62.1 °F 81% 29.87 in 10.0 mi SSE 5.8 mph - N/A Thunderstorm Thunderstorm
10:44 PM 66.0 °F - 64.0 °F 93% 29.86 in 10.0 mi ESE 12.7 mph - 0.04 in   Overcast
10:53 PM 66.9 °F - 64.0 °F 90% 29.84 in 10.0 mi East 11.5 mph - 0.04 in   Overcast
11:53 PM 64.9 °F - 63.0 °F 93% 29.85 in 10.0 mi ESE 9.2 mph - N/A   Mostly Cloudy